• In Russia
  • List of Countries
  • For 7 days
  • Water Temperature
  • Satellite Maps
  • Weather Map
  • Weather Widgets
  • user-avatar
    Login

    Hourly Weather Kaprun

    Today, 22 April, Monday

    Time Temperature Precipitation Wind Pressure Humidity
    00:00 0°C° 0 mm 3 mps 596 mmHg 85%
    01:00 0°C° 0 mm 3 mps 596 mmHg 84%
    02:00 0°C° 0 mm 3 mps 595 mmHg 85%
    03:00 0°C° 0 mm 3 mps 595 mmHg 86%
    04:00 -1°C° 0 mm 3 mps 594 mmHg 87%
    05:00 0°C° 0 mm 3 mps 594 mmHg 84%
    06:00 +1°C° 0 mm 3 mps 594 mmHg 81%
    07:00 +3°C° 0 mm 2 mps 595 mmHg 80%
    08:00 +5°C° 0 mm 2 mps 595 mmHg 75%
    09:00 +6°C° 0 mm 2 mps 595 mmHg 70%
    10:00 +8°C° 0 mm 2 mps 595 mmHg 64%
    11:00 +9°C° 0 mm 2 mps 595 mmHg 61%
    12:00 +10°C° 0 mm 2 mps 595 mmHg 59%
    13:00 +12°C° 0 mm 2 mps 595 mmHg 56%
    14:00 +10°C° 0 mm 3 mps 595 mmHg 56%
    15:00 +10°C° 0 mm 3 mps 594 mmHg 57%
    16:00 +10°C° 0 mm 3 mps 593 mmHg 57%
    17:00 +8°C° 0 mm 3 mps 593 mmHg 65%
    18:00 +5°C° 0 mm 4 mps 592 mmHg 73%
    19:00 +3°C° 0 mm 4 mps 591 mmHg 81%
    20:00 +1°C° 0 mm 4 mps 590 mmHg 81%
    21:00 0°C° 0 mm 4 mps 590 mmHg 82%
    22:00 0°C° 0 mm 4 mps 590 mmHg 83%
    23:00 -1°C° 0 mm 4 mps 589 mmHg 83%

    Tomorrow, 23 April, Tuesday

    Time Temperature Precipitation Wind Pressure Humidity
    00:00 -1°C° 0 mm 4 mps 589 mmHg 82%
    01:00 -2°C° 0 mm 4 mps 588 mmHg 82%
    02:00 -2°C° 0 mm 4 mps 588 mmHg 83%
    03:00 -2°C° 0 mm 4 mps 588 mmHg 83%
    04:00 -2°C° 0 mm 4 mps 588 mmHg 84%
    05:00 -1°C° 0.1 mm 4 mps 588 mmHg 83%
    06:00 0°C° 0.1 mm 4 mps 588 mmHg 81%
    07:00 +1°C° 0.1 mm 4 mps 588 mmHg 80%
    08:00 +1°C° 0.1 mm 4 mps 588 mmHg 77%
    09:00 +3°C° 0.1 mm 4 mps 588 mmHg 75%
    10:00 +4°C° 0.1 mm 4 mps 589 mmHg 72%
    11:00 +5°C° 0.1 mm 4 mps 589 mmHg 69%
    12:00 +6°C° 0.1 mm 5 mps 589 mmHg 66%
    13:00 +6°C° 0.1 mm 5 mps 590 mmHg 63%
    14:00 +6°C° 0.1 mm 5 mps 589 mmHg 65%
    15:00 +5°C° 0.1 mm 4 mps 589 mmHg 68%
    16:00 +5°C° 0.1 mm 4 mps 589 mmHg 70%
    17:00 +4°C° 0 mm 4 mps 588 mmHg 73%
    18:00 +3°C° 0 mm 4 mps 588 mmHg 77%
    19:00 +1°C° 0 mm 4 mps 588 mmHg 81%
    20:00 0°C° 0 mm 4 mps 588 mmHg 81%
    21:00 0°C° 0 mm 4 mps 588 mmHg 82%
    22:00 0°C° 0 mm 4 mps 588 mmHg 82%
    23:00 0°C° 0 mm 4 mps 589 mmHg 83%

    Day after tomorrow, 24 April, Wednesday

    Time Temperature Precipitation Wind Pressure Humidity
    00:00 0°C° 0 mm 4 mps 589 mmHg 84%
    01:00 0°C° 0 mm 4 mps 589 mmHg 85%
    02:00 0°C° 0 mm 4 mps 589 mmHg 85%
    03:00 0°C° 0 mm 4 mps 589 mmHg 86%
    04:00 0°C° 0 mm 4 mps 590 mmHg 86%
    05:00 0°C° 0 mm 4 mps 590 mmHg 84%
    06:00 +1°C° 0 mm 4 mps 591 mmHg 81%
    07:00 +3°C° 0 mm 4 mps 592 mmHg 79%
    08:00 +3°C° 0 mm 5 mps 593 mmHg 75%
    09:00 +6°C° 0 mm 5 mps 593 mmHg 70%
    10:00 +7°C° 0 mm 5 mps 594 mmHg 66%
    11:00 +8°C° 0 mm 5 mps 594 mmHg 64%
    12:00 +8°C° 0 mm 5 mps 595 mmHg 62%
    13:00 +8°C° 0 mm 5 mps 595 mmHg 60%
    14:00 +8°C° 0 mm 5 mps 595 mmHg 62%
    15:00 +8°C° 0 mm 5 mps 595 mmHg 64%
    16:00 +7°C° 0 mm 5 mps 594 mmHg 65%
    17:00 +6°C° 0 mm 5 mps 594 mmHg 70%
    18:00 +5°C° 0 mm 5 mps 594 mmHg 76%
    19:00 +3°C° 0 mm 5 mps 594 mmHg 81%
    20:00 +2°C° 0 mm 5 mps 594 mmHg 82%
    21:00 +2°C° 0 mm 5 mps 594 mmHg 84%
    22:00 +3°C° 0 mm 4 mps 595 mmHg 85%
    23:00 +3°C° 0 mm 4 mps 595 mmHg 86%

    25 April, Thursday

    Time Temperature Precipitation Wind Pressure Humidity
    00:00 +3°C° 0 mm 4 mps 596 mmHg 86%
    01:00 +3°C° 0 mm 4 mps 596 mmHg 87%
    02:00 +1°C° 0 mm 4 mps 596 mmHg 87%
    03:00 +1°C° 0 mm 4 mps 596 mmHg 87%
    04:00 +1°C° 0 mm 4 mps 596 mmHg 87%
    05:00 +3°C° 0 mm 4 mps 596 mmHg 85%
    06:00 +3°C° 0 mm 4 mps 596 mmHg 83%
    07:00 +3°C° 0 mm 5 mps 596 mmHg 80%
    08:00 +5°C° 0 mm 5 mps 596 mmHg 75%
    09:00 +6°C° 0 mm 5 mps 597 mmHg 70%
    10:00 +7°C° 0 mm 6 mps 597 mmHg 65%
    11:00 +8°C° 0 mm 6 mps 597 mmHg 60%
    12:00 +9°C° 0 mm 5 mps 598 mmHg 56%
    13:00 +10°C° 0 mm 5 mps 598 mmHg 52%
    14:00 +10°C° 0 mm 5 mps 598 mmHg 54%
    15:00 +9°C° 0 mm 5 mps 597 mmHg 55%
    16:00 +9°C° 0 mm 5 mps 597 mmHg 57%
    17:00 +7°C° 0 mm 4 mps 596 mmHg 64%
    18:00 +6°C° 0 mm 4 mps 596 mmHg 71%
    19:00 +4°C° 0 mm 4 mps 595 mmHg 78%
    20:00 +4°C° 0 mm 4 mps 595 mmHg 80%
    21:00 +2°C° 0 mm 5 mps 595 mmHg 81%
    22:00 +2°C° 0 mm 5 mps 595 mmHg 82%
    23:00 +3°C° 0 mm 4 mps 595 mmHg 83%

    26 April, Friday

    Time Temperature Precipitation Wind Pressure Humidity
    00:00 +3°C° 0 mm 4 mps 595 mmHg 83%
    01:00 +3°C° 0 mm 4 mps 595 mmHg 84%
    02:00 +3°C° 0 mm 4 mps 595 mmHg 85%
    03:00 +1°C° 0 mm 4 mps 595 mmHg 86%
    04:00 +2°C° 0 mm 3 mps 595 mmHg 86%
    05:00 +3°C° 0 mm 3 mps 595 mmHg 84%
    06:00 +3°C° 0 mm 3 mps 595 mmHg 82%
    07:00 +4°C° 0 mm 3 mps 595 mmHg 79%
    08:00 +5°C° 0.1 mm 3 mps 596 mmHg 73%
    09:00 +8°C° 0.1 mm 2 mps 597 mmHg 67%
    10:00 +9°C° 0.1 mm 2 mps 598 mmHg 61%
    11:00 +8°C° 1.2 mm 2 mps 597 mmHg 68%
    12:00 +7°C° 1.2 mm 2 mps 597 mmHg 75%
    13:00 +5°C° 1.2 mm 2 mps 596 mmHg 82%
    14:00 +2°C° 2.7 mm 3 mps 596 mmHg 86%
    15:00 0°C° 2.7 mm 3 mps 595 mmHg 91%
    16:00 -3°C° 2.7 mm 4 mps 594 mmHg 96%
    17:00 -4°C° 2.4 mm 3 mps 594 mmHg 95%
    18:00 -4°C° 2.4 mm 2 mps 594 mmHg 95%
    19:00 -3°C° 2.4 mm 1 mps 594 mmHg 95%
    20:00 -5°C° 0.4 mm 2 mps 594 mmHg 95%
    21:00 -5°C° 0.4 mm 2 mps 594 mmHg 96%
    22:00 -5°C° 0.4 mm 2 mps 595 mmHg 96%
    23:00 -5°C° 0.3 mm 2 mps 595 mmHg 96%

    27 April, Saturday

    Time Temperature Precipitation Wind Pressure Humidity
    00:00 -5°C° 0.3 mm 2 mps 595 mmHg 96%
    01:00 -5°C° 0.3 mm 2 mps 595 mmHg 96%
    02:00 -5°C° 0.3 mm 2 mps 595 mmHg 96%
    03:00 -5°C° 0.3 mm 2 mps 596 mmHg 96%
    04:00 -5°C° 0.3 mm 2 mps 596 mmHg 96%
    05:00 -5°C° 0.3 mm 3 mps 596 mmHg 96%
    06:00 -5°C° 0.3 mm 3 mps 597 mmHg 95%
    07:00 -4°C° 0.3 mm 3 mps 597 mmHg 95%
    08:00 -4°C° 0.4 mm 3 mps 597 mmHg 95%
    09:00 -4°C° 0.4 mm 3 mps 597 mmHg 95%
    10:00 -2°C° 0.4 mm 3 mps 597 mmHg 95%
    11:00 -2°C° 0.2 mm 3 mps 598 mmHg 94%
    12:00 -1°C° 0.2 mm 3 mps 598 mmHg 94%
    13:00 -1°C° 0.2 mm 3 mps 598 mmHg 93%
    14:00 0°C° 0.2 mm 3 mps 598 mmHg 93%
    15:00 0°C° 0.2 mm 3 mps 598 mmHg 93%
    16:00 0°C° 0.2 mm 3 mps 598 mmHg 92%
    17:00 -1°C° 0.2 mm 3 mps 598 mmHg 94%
    18:00 -1°C° 0.2 mm 3 mps 599 mmHg 95%
    19:00 -2°C° 0.2 mm 3 mps 599 mmHg 96%
    20:00 -2°C° 0.1 mm 2 mps 599 mmHg 96%
    21:00 -3°C° 0.1 mm 2 mps 599 mmHg 96%
    22:00 -3°C° 0.1 mm 2 mps 599 mmHg 96%
    23:00 -4°C° 0 mm 2 mps 599 mmHg 96%
    Show more